Weather History for Parsons, KS

Change the Weather History Date:

Wednesday, February 13, 2013

  Actual Average Record
Temperature  
Mean Temperature 40 °F -  
Max Temperature 51 °F 46 °F 78 °F (1962)
Min Temperature 28 °F 25 °F 10 °F (1958)
Degree Days  
Heating Degree Days 26    
Moisture  
Dew Point 30 °F    
Average Humidity 84    
Maximum Humidity 100    
Minimum Humidity 41    
Precipitation  
Precipitation 0.19 in - - ()
Sea Level Pressure  
Sea Level Pressure 29.98 in    
Wind  
Wind Speed 3 mph (SW)    
Max Wind Speed 13 mph    
Max Gust Speed 18 mph    
Visibility 6 miles    
Events Fog    
Averages and records for this station are not official NWS values.
T = Trace of Precipitation, MM = Missing Value Source: NWS Daily Summary

Daily Weather History Graph

Daily Weather History Graph

Search for Another Location

Airport:

Trip Planner

Search our weather history database for the weather conditions in past years. The results will help you decide how hot, cold, wet, or windy it might be!

Date:

Astronomy

Feb. 13, 2013 Rise Set
Actual Time 7:13 AM CST 5:59 PM CST
Civil Twilight 6:46 AM CST 6:26 PM CST
Nautical Twilight 6:15 AM CST 6:57 PM CST
Astronomical Twilight 5:45 AM CST 7:27 PM CST
Moon 8:48 AM CST (2/13) 9:57 PM CST (2/13)
Length of Visible Light 11h 40m
Length of Day
10h 46m
Waxing Crescent, 14% of the Moon is Illuminated
Feb 13
Waxing Crescent
Feb 17
First Quarter
Feb 25
Full
Mar 4
Last Quarter
Mar 11
New

Hourly Weather History & Observations

Time (CST) Temp. Windchill Dew Point Humidity Pressure Visibility Wind Dir Wind Speed Gust Speed Precip Events Conditions
12:08 AM 33.8 °F - 30.2 °F 87% 30.01 in 3.0 mi Calm Calm - N/A   Overcast
12:52 AM 33.1 °F - 30.9 °F 92% 30.02 in 4.0 mi Calm Calm - N/A   Overcast
1:47 AM 32.0 °F - 30.2 °F 93% 30.00 in 2.5 mi Calm Calm - N/A   Scattered Clouds
1:52 AM 32.0 °F - 30.9 °F 96% 30.02 in 2.5 mi Calm Calm - N/A   Scattered Clouds
2:00 AM 32.0 °F - 30.2 °F 93% 30.01 in 3.0 mi Calm Calm - N/A   Partly Cloudy
2:20 AM 32.0 °F - 30.2 °F 93% 30.00 in 1.5 mi Calm Calm - N/A   Scattered Clouds
2:22 AM 32.0 °F - 30.2 °F 93% 30.00 in 1.0 mi Calm Calm - N/A   Mist
2:29 AM 30.2 °F - 30.2 °F 100% 30.00 in 0.5 mi Calm Calm - N/A Fog Light Freezing Fog
2:52 AM 32.0 °F 28.7 °F 30.0 °F 92% 30.02 in 0.2 mi SW 3.5 mph - N/A Fog Fog
3:52 AM 30.9 °F 25.2 °F 28.9 °F 92% 30.00 in 0.2 mi SW 5.8 mph - N/A Fog Light Freezing Fog
4:36 AM 30.2 °F 25.4 °F 28.4 °F 93% 29.97 in 1.2 mi SSW 4.6 mph - N/A   Overcast
4:39 AM 30.2 °F 25.4 °F 28.4 °F 93% 29.97 in 2.0 mi SSW 4.6 mph - N/A   Overcast
4:47 AM 30.2 °F 25.4 °F 28.4 °F 93% 29.97 in 6.0 mi SSW 4.6 mph - N/A   Mostly Cloudy
4:52 AM 30.0 °F 24.1 °F 28.9 °F 96% 29.99 in 5.0 mi SW 5.8 mph - N/A   Mostly Cloudy
5:06 AM 30.2 °F 25.4 °F 28.4 °F 93% 29.97 in 2.0 mi SSW 4.6 mph - N/A   Mostly Cloudy
5:16 AM 28.4 °F 23.3 °F 28.4 °F 100% 29.97 in 6.0 mi SSW 4.6 mph - N/A   Mostly Cloudy
5:23 AM 28.4 °F 23.3 °F 28.4 °F 100% 29.97 in 6.0 mi SSW 4.6 mph - N/A   Scattered Clouds
5:52 AM 28.9 °F 25.2 °F 27.0 °F 92% 30.00 in 7.0 mi WSW 3.5 mph - N/A   Partly Cloudy
6:12 AM 28.4 °F - 26.6 °F 93% 29.98 in 5.0 mi Calm Calm - N/A   Mostly Cloudy
6:52 AM 30.0 °F 24.1 °F 28.0 °F 92% 30.01 in 7.0 mi WSW 5.8 mph - N/A   Overcast
7:52 AM 30.9 °F 25.2 °F 28.9 °F 92% 30.01 in 5.0 mi SW 5.8 mph - N/A   Overcast
8:11 AM 30.2 °F 24.3 °F 30.2 °F 100% 29.98 in 5.0 mi SSW 5.8 mph - N/A   Overcast
8:52 AM 30.9 °F 22.8 °F 28.9 °F 92% 30.02 in 5.0 mi SW 9.2 mph - N/A   Overcast
9:52 AM 30.9 °F 24.3 °F 30.0 °F 96% 30.02 in 5.0 mi SSW 6.9 mph - N/A   Overcast
10:52 AM 32.0 °F 25.6 °F 30.0 °F 92% 30.03 in 5.0 mi SW 6.9 mph - 0.04 in   Overcast
11:07 AM 32.0 °F 25.6 °F 30.2 °F 93% 30.01 in 6.0 mi SW 6.9 mph - 0.03 in   Mostly Cloudy
11:26 AM 33.8 °F 27.0 °F 30.2 °F 87% 30.01 in 7.0 mi SSW 8.1 mph - 0.06 in   Scattered Clouds
11:52 AM 35.1 °F 27.9 °F 33.1 °F 92% 30.02 in 9.0 mi SSW 9.2 mph - 0.13 in   Partly Cloudy
12:52 PM 42.1 °F 36.6 °F 36.0 °F 79% 29.99 in 10.0 mi SW 9.2 mph - 0.02 in   Clear
1:52 PM 45.0 °F 39.3 °F 35.1 °F 68% 29.96 in 10.0 mi SW 11.5 mph - N/A   Clear
2:52 PM 48.9 °F - 35.1 °F 59% 29.94 in 10.0 mi SW 10.4 mph 18.4 mph N/A   Clear
3:52 PM 51.1 °F - 28.9 °F 43% 29.93 in 10.0 mi WSW 12.7 mph - N/A   Clear
4:52 PM 51.1 °F - 28.0 °F 41% 29.92 in 10.0 mi WSW 10.4 mph - N/A   Clear
5:52 PM 48.0 °F - 28.9 °F 48% 29.91 in 10.0 mi WSW 9.2 mph - N/A   Clear
6:52 PM 43.0 °F 40.3 °F 28.9 °F 58% 29.92 in 10.0 mi SW 4.6 mph - N/A   Clear
7:52 PM 41.0 °F 37.1 °F 28.0 °F 60% 29.94 in 10.0 mi SW 5.8 mph - N/A   Clear
8:52 PM 39.0 °F 35.7 °F 28.0 °F 65% 29.94 in 10.0 mi SW 4.6 mph - N/A   Clear
9:52 PM 39.0 °F 34.8 °F 30.0 °F 70% 29.94 in 10.0 mi SW 5.8 mph - N/A   Clear
10:52 PM 37.0 °F 33.3 °F 30.0 °F 76% 29.95 in 10.0 mi SW 4.6 mph - N/A   Clear
11:52 PM 36.0 °F - 28.9 °F 76% 29.95 in 10.0 mi Calm Calm - N/A   Clear